Palacios, TX

3:12 AM CDT on October 19, 2017 (GMT -0500)
Palacios Municipal

Weather History for KPSX - December, 2012

Change the Weather History Date:

Wednesday, December 19, 2012

  Actual Average Record
Temperature  
Mean Temperature 74 °F -  
Max Temperature 79 °F 65 °F 79 °F (2012)
Min Temperature 69 °F 47 °F 23 °F (1996)
Cooling Degree Days 9    
Growing Degree Days 24 (Base 50)    
Moisture  
Dew Point 68 °F    
Average Humidity 84    
Maximum Humidity 94    
Minimum Humidity 69    
Precipitation  
Precipitation 0.00 in - - ()
Sea Level Pressure  
Sea Level Pressure 29.80 in    
Wind  
Wind Speed 12 mph (South)    
Max Wind Speed 23 mph    
Max Gust Speed 32 mph    
Visibility 8 miles    
Events      
Averages and records for this station are not official NWS values.
T = Trace of Precipitation, MM = Missing Value Source: NWS Daily Summary

Daily Weather History Graph

Daily Weather History Graph

Search for Another Location

Airport or City:

Trip Planner

Search our weather history database for the weather conditions in past years. The results will help you decide how hot, cold, wet, or windy it might be!

Date:

Astronomy

Dec. 19, 2012 Rise Set
Actual Time 7:13 AM CST 5:31 PM CST
Civil Twilight 6:47 AM CST 5:57 PM CST
Nautical Twilight 6:17 AM CST 6:27 PM CST
Astronomical Twilight 5:48 AM CST 6:56 PM CST
Moon 11:53 AM CST No Moon Set
Length of Visible Light 11h 10m
Length of Day
10h 18m
Waxing Crescent, 45% of the Moon is Illuminated
Dec 19
Waxing Crescent
Dec 19
First Quarter
Dec 28
Full
Jan 4
Last Quarter
Jan 11
New

Hourly Weather History & Observations

Time (CST) Temp. Dew Point Humidity Pressure Visibility Wind Dir Wind Speed Gust Speed Precip Events Conditions
12:53 AM 71.1 °F 66.0 °F 84% 29.85 in 9.0 mi SSE 11.5 mph - N/A   Clear
1:53 AM 70.0 °F 66.9 °F 90% 29.85 in 7.0 mi South 10.4 mph - N/A   Clear
2:24 AM 69.8 °F 66.2 °F 88% 29.84 in 7.0 mi South 9.2 mph - N/A   Mostly Cloudy
2:53 AM 69.1 °F 66.0 °F 90% 29.84 in 6.0 mi South 8.1 mph - N/A   Scattered Clouds
3:04 AM 69.8 °F 66.2 °F 88% 29.83 in 6.0 mi South 8.1 mph - N/A   Mostly Cloudy
3:53 AM 69.1 °F 66.0 °F 90% 29.83 in 5.0 mi South 8.1 mph - N/A   Mostly Cloudy
4:53 AM 70.0 °F 66.9 °F 90% 29.82 in 5.0 mi South 10.4 mph 29.9 mph N/A   Overcast
5:53 AM 70.0 °F 66.9 °F 90% 29.81 in 5.0 mi SSE 11.5 mph - N/A   Mostly Cloudy
6:05 AM 71.6 °F 66.2 °F 83% 29.81 in 6.0 mi SSE 12.7 mph - N/A   Mostly Cloudy
6:53 AM 71.1 °F 68.0 °F 90% 29.82 in 7.0 mi SSE 11.5 mph - N/A   Partly Cloudy
7:53 AM 72.0 °F 68.0 °F 87% 29.84 in 6.0 mi SSE 11.5 mph - N/A   Scattered Clouds
8:53 AM 75.0 °F 69.1 °F 82% 29.84 in 8.0 mi SSE 17.3 mph - N/A   Partly Cloudy
9:53 AM 75.9 °F 69.1 °F 79% 29.86 in 10.0 mi South 17.3 mph 24.2 mph N/A   Clear
10:53 AM 78.1 °F 69.1 °F 74% 29.86 in 10.0 mi South 18.4 mph 25.3 mph N/A   Mostly Cloudy
11:14 AM 78.8 °F 69.8 °F 74% 29.84 in 10.0 mi South 19.6 mph 26.5 mph N/A   Scattered Clouds
11:53 AM 79.0 °F 69.1 °F 72% 29.80 in 10.0 mi South 23.0 mph 32.2 mph N/A   Clear
12:33 PM 78.8 °F 68.0 °F 69% 29.81 in 10.0 mi South 12.7 mph 23.0 mph N/A   Mostly Cloudy
12:53 PM 79.0 °F 69.1 °F 72% 29.81 in 10.0 mi South 12.7 mph 23.0 mph N/A   Overcast
1:30 PM 77.0 °F 68.0 °F 74% 29.77 in 10.0 mi South 16.1 mph 21.9 mph N/A   Overcast
1:53 PM 77.0 °F 69.1 °F 76% 29.76 in 10.0 mi SSE 17.3 mph - N/A   Overcast
2:53 PM 78.1 °F 69.1 °F 74% 29.75 in 10.0 mi South 18.4 mph 24.2 mph N/A   Mostly Cloudy
3:53 PM 75.9 °F 69.1 °F 79% 29.75 in 10.0 mi South 16.1 mph - N/A   Overcast
4:53 PM 75.9 °F 69.1 °F 79% 29.73 in 10.0 mi SSE 18.4 mph 26.5 mph N/A   Partly Cloudy
5:53 PM 75.0 °F 69.1 °F 82% 29.73 in 10.0 mi South 15.0 mph 23.0 mph N/A   Overcast
6:53 PM 73.9 °F 70.0 °F 87% 29.75 in 9.0 mi South 16.1 mph - N/A   Scattered Clouds
7:53 PM 73.0 °F 70.0 °F 90% 29.75 in 8.0 mi South 15.0 mph - N/A   Clear
8:53 PM 73.0 °F 69.1 °F 87% 29.75 in 7.0 mi SSE 12.7 mph - N/A   Partly Cloudy
9:50 PM 73.4 °F 69.8 °F 88% 29.77 in 7.0 mi South 12.7 mph - N/A   Mostly Cloudy
9:53 PM 73.0 °F 69.1 °F 87% 29.77 in 7.0 mi South 13.8 mph - N/A   Mostly Cloudy
10:53 PM 72.0 °F 69.1 °F 91% 29.78 in 6.0 mi SSW 6.9 mph - N/A   Overcast
11:18 PM 71.6 °F 69.8 °F 94% 29.78 in 6.0 mi South 8.1 mph - N/A   Overcast
11:27 PM 71.6 °F 69.8 °F 94% 29.78 in 5.0 mi South 8.1 mph - N/A   Overcast